Hourly Weather Roundup
Issued by NWS Central Illinois

Home | Current Version | Previous Version | Text Only | Print | Product List | Glossary On
Versions: 1 2 3 4 5 6 7 8 9 10 11 12 13 14 15 16 17 18 19 20 21 22 23 24 25 26 27 28 29 30 31 32 33 34 35 36 37 38 39 40 41 42 43 44 45 46 47 48 49 50
000
NZUS43 KILX 301210
HWRILX

AREA WEATHER ROUNDUP
NATIONAL WEATHER SERVICE, LINCOLN IL
700 AM CDT SAT AUG 30 2014


CITY           SKY/WX    TMP DP  RH WIND       PRES   REMARKS
BLOOMINGTON    MOCLDY    70  67  90 SW10      29.92S
CHAMPAIGN      CLOUDY    71  69  93 S12       29.95R
6HR MIN TEMP:  71; 6HR MAX TEMP:  75; 6HR PCP: TRACE;

DECATUR        CLOUDY    72  69  90 SW10      29.94R
6HR MIN TEMP:  72; 6HR MAX TEMP:  77; 6HR PCP: TRACE;

FLORA          CLOUDY    72  69  90 S9        30.00R
6HR MIN TEMP:  71; 6HR MAX TEMP:  74;

GALESBURG      MOCLDY    69  68  97 S8        29.86R
JACKSONVILLE   PTCLDY    73  70  92 S9        29.92R
6HR MIN TEMP:  72; 6HR MAX TEMP:  76;

LACON          PTCLDY    71  69  92 S7        29.86R
6HR MIN TEMP:  71; 6HR MAX TEMP:  72;

LAWRENCEVILLE  CLOUDY    73  70  90 S6        30.00R FOG
6HR MIN TEMP:  73; 6HR MAX TEMP:  76; 6HR PCP: TRACE;

LITCHFIELD     CLOUDY    69  69  98 S7        29.95R
$$


CITY           SKY/WX    TMP DP  RH WIND       PRES   REMARKS
LINCOLN        MOCLDY    72  69  92 S6        29.89R
6HR MIN TEMP:  72; 6HR MAX TEMP:  75;

MACOMB         PTCLDY    68  66  94 SW8       29.90R
MATTOON        CLOUDY    72  68  87 S7        29.96R
6HR MIN TEMP:  72; 6HR MAX TEMP:  76; 6HR PCP: TRACE;

MT CARMEL AP   CLOUDY    73  72  94 S5        30.01R
OLNEY-NOBLE AP CLOUDY    72  68  88 CALM      30.00R
PARIS          CLOUDY    72  69  89 SW10      29.98R
6HR MIN TEMP:  72; 6HR MAX TEMP:  73;

PEORIA         MOCLDY    73  69  87 S9        29.88R
6HR MIN TEMP:  72; 6HR MAX TEMP:  74; 6HR PCP: TRACE;

PONTIAC        CLOUDY    73  72  94 S12       29.88F
RANTOUL        CLOUDY    74  68  83 S9        29.94S
6HR MIN TEMP:  74; 6HR MAX TEMP:  75;

ROBINSON       CLOUDY    73  71  95 S5        30.00R
6HR MIN TEMP:  72; 6HR MAX TEMP:  76; 6HR PCP:  0.07;

SPRINGFIELD    MOCLDY    73  69  87 S9        29.91S
6HR MIN TEMP:  73; 6HR MAX TEMP:  76;

TAYLORVILLE    MOCLDY    70  68  94 S7        29.94S
$$

...REGIONAL REPORTS...


CITY           SKY/WX    TMP DP  RH WIND       PRES   REMARKS
CHICAGO O`HARE HVY RAIN  73  67  81 SW22G30   29.88R VSB 1
KANKAKEE       MOCLDY    72  70  94 S12       29.90S
MOLINE         MOCLDY    69  67  93 SW7       29.82R
MOUNT VERNON   CLOUDY    72  66  83 S5        30.01R
PITTSFIELD     MOCLDY    71  68  89 S7        29.92R
QUINCY         CLEAR     70  68  93 S7        29.89R FOG
ROCKFORD       MOCLDY    68  65  90 S10       29.84R
$$


CITY           SKY/WX    TMP DP  RH WIND       PRES   REMARKS
BURLINGTON     CLEAR     69  67  93 SW9       29.86R
CEDAR RAPIDS   CLOUDY    67  66  97 SW9       29.81R
DES MOINES     MOCLDY    67  64  90 W5        29.86R
KIRKSVILLE     CLEAR     68  67  96 SW6       29.90R
OTTUMWA        CLEAR     65  64  97 W6        29.86R
ST LOUIS       MOCLDY    76  68  76 S12       29.94R
$$


CITY           SKY/WX    TMP DP  RH WIND       PRES   REMARKS
TERRE HAUTE    CLOUDY    73  68  84 S8        29.99R
EVANSVILLE     LGT RAIN  72  69  90 CALM      30.02R
INDIANAPOLIS   CLOUDY    72  65  78 S8        29.99R
LAFAYETTE      CLOUDY    72  67  84 VRB6      29.94S
MADISON        LGT RAIN  72  68  87 S8        29.77S
MILWAUKEE      MOCLDY    72  67  84 SW13      29.81F
$$





USA.gov is the U.S. government's official web portal to all federal, state and local government web resources and services.